Date,TemperatureHighF,TemperatureAvgF,TemperatureLowF,DewpointHighF,DewpointAvgF,DewpointLowF,HumidityHigh,HumidityAvg,HumidityLow,PressureMaxIn,PressureMinIn,WindSpeedMaxMPH,WindSpeedAvgMPH,GustSpeedMaxMPH,PrecipitationSumIn
2013-1-1,19,5,-6,16,2,-8,88,83,68,30.35,30.09,7,1,0,0.00
2013-1-2,21,17,14,18,14,11,92,89,82,30.12,30.00,7,2,0,0.00
2013-1-3,21,14,11,18,9,5,89,82,66,30.31,30.12,12,3,15,0.00
2013-1-4,33,22,14,19,15,10,89,75,55,30.16,30.05,7,1,15,0.00
2013-1-5,27,18,12,17,13,9,92,81,60,30.13,29.88,8,1,0,0.00
2013-1-6,26,17,10,15,11,5,89,77,54,30.27,30.05,13,2,13,0.00
2013-1-7,39,29,17,26,22,13,86,76,59,30.04,29.91,12,2,18,0.01
2013-1-8,36,27,15,29,23,13,94,84,70,30.00,29.77,14,2,18,0.00
2013-1-9,35,31,26,28,23,20,85,73,58,30.37,29.92,20,4,24,0.00
2013-1-10,41,34,28,32,26,21,94,72,47,30.32,29.74,12,3,15,0.28
2013-1-11,41,37,34,40,36,32,96,95,92,29.74,29.36,11,3,14,0.04
2013-1-12,39,15,4,37,9,-2,92,78,68,30.12,29.37,17,5,23,0.00
2013-1-13,7,4,0,2,-1,-4,84,80,76,30.31,30.10,11,2,12,0.00
2013-1-14,15,8,3,5,2,-1,87,78,60,30.48,30.31,9,1,0,0.00
2013-1-15,30,20,10,18,12,5,90,74,49,30.34,29.86,11,2,15,0.00
2013-1-16,35,26,12,31,17,-4,92,70,44,30.27,29.67,13,4,18,0.00
2013-1-17,18,12,6,10,2,-5,76,63,49,30.44,30.27,11,2,12,0.00
2013-1-18,41,28,16,30,22,10,90,79,64,30.34,29.75,14,2,19,0.01
2013-1-19,38,22,1,30,17,-5,93,78,56,30.25,29.67,28,5,36,0.00
2013-1-20,6,1,-4,0,-6,-10,80,71,58,30.47,30.26,15,5,19,0.00
2013-1-21,-4,-8,-12,-10,-14,-18,75,68,60,30.44,30.35,19,5,19,0.00
2013-1-22,3,-5,-13,-4,-12,-17,76,69,59,30.51,30.33,8,1,0,0.00
2013-1-23,14,5,-6,7,-3,-15,85,67,50,30.69,30.23,24,2,25,0.00
2013-1-24,12,1,-8,2,-8,-15,67,63,59,30.76,30.23,10,1,15,0.00
2013-1-25,18,12,3,11,4,-3,79,69,60,30.37,30.00,18,5,23,0.00
2013-1-26,24,12,-1,12,4,-5,86,69,53,30.41,30.17,10,2,14,0.00
2013-1-27,32,29,23,29,22,12,93,77,61,30.17,29.81,10,1,16,0.00
2013-1-28,35,32,29,33,30,28,96,94,90,29.91,29.64,8,0,0,0.24
2013-1-29,36,32,27,32,28,22,96,88,80,29.76,29.52,10,2,14,0.15
2013-1-30,27,17,7,22,11,1,83,77,71,29.79,29.66,21,5,21,0.00
2013-1-31,7,0,-9,1,-6,-15,80,73,66,30.35,29.80,19,6,23,0.00
2013-2-1,3,-5,-13,-2,-10,-17,83,72,51,30.40,30.15,9,1,0,0.00
2013-2-2,15,6,-1,6,0,-4,86,76,56,30.26,30.03,6,0,0,0.00
2013-2-3,12,9,2,7,3,-2,87,78,67,30.14,30.03,12,2,15,0.00
2013-2-4,16,10,1,10,2,-4,88,72,55,30.14,29.79,10,1,0,0.00
2013-2-5,30,21,6,23,15,4,92,79,52,30.11,29.69,14,2,14,0.01
2013-2-6,26,16,5,21,12,2,90,85,77,30.14,29.98,4,0,0,0.00
2013-2-7,28,25,23,23,21,20,92,86,78,30.28,30.03,4,0,0,0.00
2013-2-8,32,22,10,21,15,7,91,75,49,30.42,30.25,10,1,14,0.00
2013-2-9,31,28,24,28,24,20,92,87,83,30.25,29.95,18,5,21,0.00
2013-2-10,33,30,27,31,28,24,95,92,87,29.95,29.29,11,1,13,0.00
2013-2-11,29,24,16,28,20,12,95,83,73,30.06,29.34,19,6,26,0.00
2013-2-12,35,24,14,24,18,10,87,78,60,30.06,29.82,13,2,13,0.00
2013-2-13,41,29,21,31,24,18,94,83,61,29.83,29.57,7,1,0,0.04
2013-2-14,32,25,13,31,18,4,94,75,41,30.20,29.60,17,2,19,0.01
2013-2-15,19,11,4,5,2,-1,82,68,49,30.35,30.20,13,3,20,0.00
2013-2-16,24,10,1,9,3,-2,85,74,48,30.31,30.17,6,0,0,0.00
2013-2-17,32,21,6,21,14,1,84,74,63,30.17,29.66,18,4,23,0.00
2013-2-18,32,23,8,29,17,2,89,80,73,29.83,29.53,22,5,26,0.00
2013-2-19,10,5,1,2,-3,-6,80,67,55,30.43,29.83,19,6,24,0.00
2013-2-20,22,6,-6,6,-2,-9,85,69,47,30.55,30.43,7,0,0,0.01
2013-2-21,28,14,1,15,6,-3,86,70,49,30.53,30.15,4,0,0,0.00
2013-2-22,33,24,20,24,19,15,90,83,67,30.16,29.88,5,0,0,0.02
2013-2-23,33,24,19,25,20,17,92,84,69,29.98,29.86,7,1,0,0.00
2013-2-24,38,24,11,24,18,9,92,78,55,30.13,29.99,6,0,0,0.06
2013-2-25,40,29,20,25,21,17,89,75,53,30.13,30.05,4,0,0,0.01
2013-2-26,41,27,15,29,22,12,92,81,61,30.08,29.90,5,0,0,0.00
2013-2-27,42,32,28,27,25,22,84,75,53,30.05,29.89,12,1,19,0.00
2013-2-28,30,28,23,23,21,16,80,74,68,30.25,30.04,5,0,0,0.00
2013-3-1,37,25,15,21,16,10,80,69,48,30.39,30.25,6,0,0,0.00
2013-3-2,38,21,6,14,9,4,90,64,27,30.40,30.20,6,0,0,0.00
2013-3-3,38,26,17,13,11,8,75,53,33,30.20,30.01,13,1,16,0.00
2013-3-4,27,25,23,22,17,8,91,73,44,30.07,29.97,9,0,0,0.00
2013-3-5,32,26,21,26,22,17,92,86,74,30.33,30.00,1,0,0,0.00
2013-3-6,32,22,13,21,16,10,89,79,62,30.45,30.33,6,0,0,0.02
2013-3-7,37,22,7,20,14,4,91,72,48,30.43,30.32,11,1,18,0.03
2013-3-8,45,31,21,30,24,17,87,76,55,30.36,30.10,12,3,14,0.16
2013-3-9,37,35,33,35,33,28,95,92,76,30.10,29.70,11,2,13,0.49
2013-3-10,34,32,29,33,29,24,95,86,81,29.97,29.78,9,1,0,0.01
2013-3-11,30,27,22,24,22,18,85,80,69,29.89,29.76,12,2,14,0.00
2013-3-12,30,24,20,18,15,10,84,68,46,30.22,29.85,21,4,22,0.00
2013-3-13,28,17,12,14,11,9,88,79,53,30.42,30.22,10,2,0,0.00
2013-3-18,28,21,12,26,16,6,92,80,69,29.84,29.62,20,6,25,0.00
2013-3-19,22,12,5,7,2,-3,78,63,41,30.24,29.84,19,6,25,0.00
2013-3-20,21,12,5,5,0,-3,69,59,47,30.27,30.16,20,6,24,0.00
2013-3-21,32,16,3,12,6,-1,85,64,41,30.18,30.08,10,1,0,0.01
2013-3-22,42,24,9,16,11,4,87,61,33,30.14,30.06,5,0,0,0.01
2013-3-23,41,29,16,20,17,12,86,62,39,30.18,30.10,7,0,0,0.00
2013-3-24,34,30,27,25,22,20,84,73,62,30.12,30.00,4,0,0,0.00
2013-3-25,39,28,21,22,18,15,76,67,43,30.17,30.07,11,2,16,0.00
2013-3-28,49,35,20,26,21,16,89,60,32,30.36,30.28,9,1,0,0.00
2013-3-29,52,40,27,36,30,22,81,69,49,30.30,30.07,11,2,15,0.00
2013-3-30,53,44,36,43,37,31,93,79,63,30.07,29.83,11,3,14,0.40
2013-3-31,38,33,23,31,23,11,91,67,36,30.10,29.79,20,6,30,0.00
2013-4-1,34,24,16,18,13,10,77,62,40,30.29,30.10,16,5,19,0.00
2013-4-2,40,27,18,18,14,8,84,62,32,30.39,30.28,11,2,15,0.00
2013-4-3,46,34,17,31,21,14,88,62,34,30.43,30.05,21,4,22,0.00
2013-4-4,51,43,32,33,28,21,79,56,37,30.17,30.00,16,4,20,0.00
2013-4-5,48,33,23,32,24,17,91,70,32,30.26,29.92,12,1,14,0.06
2013-4-6,52,41,35,42,34,28,92,77,55,29.92,29.51,17,3,18,0.18
2013-4-7,53,40,34,38,34,30,91,77,52,29.95,29.74,11,1,12,0.14
2013-4-8,44,41,39,42,39,36,96,92,87,30.06,29.68,4,0,0,0.66
2013-4-9,47,38,33,36,31,25,88,77,58,30.19,29.98,6,1,0,0.13
2013-4-10,40,35,30,30,26,24,92,72,55,30.21,29.92,5,0,0,0.11
2013-4-11,36,33,30,32,29,23,93,85,61,29.93,29.70,5,0,0,0.40
2013-4-12,36,31,27,29,27,25,93,86,69,29.86,29.69,9,1,0,0.11
2013-4-13,36,31,26,28,25,22,93,80,65,29.98,29.84,12,2,15,0.10
2013-4-14,36,31,26,34,28,22,95,87,74,29.97,29.51,9,1,13,0.55
2013-4-15,39,35,32,34,29,25,93,77,67,29.98,29.53,16,5,20,0.25
2013-4-16,48,38,32,30,28,26,80,68,46,30.33,29.96,14,3,18,0.00
2013-4-17,42,37,33,34,30,26,93,76,65,30.33,29.89,5,0,0,0.11
2013-4-18,34,32,30,32,30,29,96,94,90,29.95,29.51,11,1,15,0.09
2013-4-19,38,32,28,29,25,15,96,79,54,30.01,29.49,20,4,22,0.21
2013-4-20,46,32,18,22,15,9,80,52,24,30.32,30.01,9,1,0,0.13
2013-4-21,48,40,33,45,34,18,94,82,52,30.32,30.01,17,4,23,0.20
2013-4-22,48,37,31,37,32,29,95,83,54,30.22,30.12,8,1,0,0.03
2013-4-23,44,34,27,30,25,18,95,73,40,30.17,30.07,14,2,15,0.50
2013-4-24,51,37,27,34,27,22,89,72,35,30.08,29.91,18,3,25,0.00
2013-4-25,51,41,31,33,28,23,89,64,35,30.21,29.98,13,3,14,0.00
2013-4-26,73,58,46,44,38,29,71,50,29,30.10,29.95,17,3,24,0.00
2013-4-27,74,59,39,47,37,31,83,49,22,30.11,29.85,12,2,14,0.00
2013-4-28,80,65,52,54,47,44,91,56,31,29.85,29.58,21,4,25,0.08
2013-4-29,81,63,48,57,45,35,92,57,27,29.79,29.50,11,1,14,0.00
2013-4-30,69,64,56,58,46,27,79,54,24,29.92,29.35,18,4,20,0.00
2013-5-1,56,41,32,39,33,28,94,76,46,30.49,29.93,15,2,18,0.21
2013-5-2,48,40,35,30,27,25,74,61,44,30.55,30.42,15,2,19,0.00
2013-5-3,37,34,31,33,29,24,91,82,63,30.43,30.17,7,1,0,0.18
2013-5-4,48,39,32,42,35,30,93,87,77,30.19,30.13,4,0,0,0.05
2013-5-5,71,51,37,50,42,34,89,72,46,30.19,30.05,7,0,0,0.00
2013-5-6,77,59,42,49,45,39,93,62,33,30.10,29.97,7,0,0,0.00
2013-5-7,80,65,48,51,46,38,88,55,24,30.03,29.91,12,1,16,0.00
2013-5-8,80,65,56,57,51,44,91,63,31,29.97,29.90,9,0,16,0.23
2013-5-9,58,52,42,55,47,31,91,82,64,30.10,29.91,6,0,0,0.05
2013-5-10,67,52,34,40,29,19,79,47,17,30.13,29.85,8,1,0,0.00
2013-5-11,58,46,40,39,27,20,65,48,32,30.17,29.85,21,6,26,0.01
2013-5-12,59,46,32,30,22,14,69,42,18,30.23,30.08,12,2,16,0.00
2013-5-13,71,54,34,47,35,23,81,50,27,30.10,29.61,20,3,24,0.02
2013-5-14,96,73,49,54,46,27,86,45,11,29.66,29.40,24,3,27,0.00
2013-5-15,80,67,53,49,46,41,75,48,29,29.87,29.62,16,2,21,0.00
2013-5-16,87,71,53,51,43,27,87,42,19,29.88,29.77,5,0,0,0.00
2013-5-17,68,60,56,54,49,30,90,73,24,29.95,29.84,7,0,0,0.13
2013-5-18,81,65,54,66,59,52,96,81,55,29.97,29.75,14,2,18,0.02
2013-5-19,82,69,63,66,63,61,95,83,55,29.76,29.51,16,2,26,1.48
2013-5-20,72,66,61,62,60,56,96,81,60,29.53,29.45,17,2,20,0.33
2013-5-21,60,54,46,58,52,44,96,94,90,29.70,29.48,2,0,0,0.15
2013-5-22,52,48,44,49,46,42,96,91,80,29.99,29.69,4,0,0,0.06
2013-5-23,68,54,42,44,36,27,88,55,26,30.33,29.99,7,0,0,0.00
2013-5-24,70,55,38,52,38,30,89,56,31,30.38,30.17,15,1,15,0.16
2013-5-25,63,56,52,51,49,44,93,78,51,30.25,30.19,17,2,22,0.09
2013-6-10,61,61,61,58,58,58,91,91,91,29.80,29.79,0,0,0,0.00
2013-6-11,75,67,55,69,62,54,96,87,72,29.85,29.75,5,0,0,0.00
2013-6-12,74,65,58,67,60,52,97,83,63,29.89,29.68,9,0,0,0.90
2013-6-13,82,68,56,58,54,50,82,62,41,30.06,29.89,6,0,0,0.00
2013-6-14,79,70,57,62,57,51,82,65,53,30.05,29.82,14,2,17,0.00
2013-6-15,76,69,62,68,64,60,95,84,71,29.89,29.79,9,1,13,0.90
2013-6-16,85,70,55,60,54,44,97,64,25,29.88,29.78,26,2,27,0.00
2013-6-17,81,69,58,62,57,53,93,66,40,29.98,29.81,10,1,14,0.00
2013-6-18,80,66,52,61,54,45,80,66,46,30.05,29.97,3,0,0,0.00
2013-6-19,85,72,58,63,58,53,85,63,37,30.02,29.89,9,1,0,0.00
2013-6-20,89,80,70,69,64,60,76,59,42,29.94,29.80,12,2,18,0.00
2013-6-21,83,72,62,69,65,60,97,81,58,30.06,29.63,22,1,31,2.26
2013-6-22,68,66,66,67,64,63,97,94,92,29.91,29.82,8,2,0,0.25
2013-6-23,82,78,69,67,66,62,87,67,52,29.82,29.72,10,2,17,0.52
2013-6-24,84,74,63,72,66,62,96,79,57,29.85,29.74,7,1,13,0.04
2013-6-25,90,76,65,73,68,62,91,75,53,29.78,29.64,12,1,14,0.00
2013-6-26,86,79,70,76,70,65,96,77,53,29.75,29.59,18,2,31,0.36
2013-6-27,85,77,68,67,61,54,91,61,36,29.75,29.72,21,3,29,0.00
2013-6-28,77,70,64,66,61,57,91,72,57,29.75,29.69,18,4,20,0.05
2013-6-29,78,69,61,63,58,51,95,72,43,29.95,29.70,7,1,0,0.60
2013-6-30,85,70,56,60,54,50,88,61,35,30.07,29.95,7,0,0,0.00
2013-7-1,87,73,60,62,58,53,94,63,35,30.14,30.07,5,0,0,0.00
2013-7-2,87,72,58,59,55,49,85,58,33,30.12,30.00,6,0,0,0.00
2013-7-3,89,72,58,59,54,47,92,58,28,30.02,29.90,5,0,0,0.00
2013-7-4,88,78,65,61,57,53,74,51,31,29.92,29.79,14,2,14,0.00
2013-7-5,87,80,72,64,61,56,62,52,41,29.84,29.73,20,4,21,0.00
2013-7-6,90,81,75,68,64,61,64,56,43,29.81,29.72,16,2,16,0.00
2013-7-7,92,81,69,71,68,63,94,66,47,29.82,29.74,7,1,0,0.10
2013-7-8,85,72,63,71,66,61,95,82,58,29.95,29.82,6,1,0,0.00
2013-7-9,82,75,68,72,69,66,96,83,69,29.91,29.68,13,2,22,0.46
2013-8-29,89,85,82,73,72,70,73,65,55,29.81,29.77,7,1,0,0.16
2013-8-30,87,77,70,72,67,62,87,72,52,29.87,29.74,7,0,0,0.00
2013-8-31,88,74,63,69,65,60,92,75,48,29.84,29.65,15,1,21,0.13
2013-9-1,72,68,61,66,60,53,91,76,65,29.94,29.65,13,2,18,0.00
2013-9-2,66,59,54,54,52,50,91,77,64,30.07,29.93,8,1,0,0.00
2013-9-3,76,63,49,60,54,47,96,76,50,30.08,29.96,7,1,0,0.00
2013-9-4,89,71,59,67,61,57,94,73,45,30.11,29.97,5,0,0,0.00
2013-9-5,82,69,60,66,59,52,79,71,54,30.18,30.05,5,0,0,0.00
2013-9-6,91,80,70,68,66,62,89,66,42,30.05,29.80,13,2,17,0.00
2013-9-7,96,81,70,72,67,60,88,65,40,29.95,29.78,4,0,0,0.00
2013-9-8,78,69,64,65,59,53,81,71,59,30.00,29.83,10,0,0,0.00
2013-9-9,92,77,69,74,69,64,91,77,51,29.84,29.56,9,1,12,0.01
2013-9-10,80,73,67,72,65,59,89,75,50,29.93,29.69,8,1,12,0.00
2013-9-11,84,73,63,63,57,49,92,62,31,30.01,29.92,14,2,17,0.00
2013-9-12,74,64,54,56,50,45,88,62,40,30.20,30.00,15,1,17,0.00
2013-9-13,72,59,46,48,45,43,92,63,36,30.26,30.05,6,0,0,0.00
2013-9-14,71,60,53,57,49,44,94,70,45,30.06,29.86,8,1,14,0.49
2013-9-15,66,58,48,57,54,45,96,86,67,30.30,29.86,4,0,0,0.19
2013-9-16,71,54,41,46,41,30,95,66,26,30.40,30.23,7,0,0,0.00
2013-9-17,67,56,48,54,47,42,85,71,62,30.24,30.02,15,2,19,0.00
2013-9-27,84,74,67,65,61,59,78,66,47,29.87,29.74,18,3,22,0.00
2013-9-28,74,61,48,63,54,45,93,78,62,29.90,29.57,18,3,23,0.17
2013-9-29,76,61,47,48,45,42,90,60,32,29.94,29.75,12,2,17,0.00
2013-9-30,79,68,60,54,50,46,63,52,39,29.76,29.54,17,4,18,0.00
2013-10-1,74,66,50,54,45,32,76,50,22,29.94,29.53,19,3,19,0.00
2013-10-2,77,59,44,54,44,36,94,66,24,30.02,29.80,12,1,14,0.78
2013-10-3,58,56,54,57,55,52,96,95,93,29.92,29.81,5,0,0,0.10
2013-10-4,56,54,54,53,53,52,96,94,91,29.96,29.91,3,0,0,0.00
2013-10-5,58,51,44,54,48,42,95,88,75,29.77,29.70,6,0,0,0.17
2013-10-6,52,46,42,50,45,40,97,95,91,29.84,29.67,8,1,0,0.07
2013-10-7,66,52,41,50,44,39,98,78,38,29.96,29.82,8,1,0,0.01
2013-10-8,77,63,49,49,46,42,81,55,34,29.95,29.78,15,3,23,0.00
2013-10-9,77,66,60,53,50,48,68,56,41,30.00,29.88,13,3,15,0.00
2013-10-10,79,64,53,55,49,45,74,60,37,30.00,29.84,14,2,17,0.00
2013-10-11,74,66,58,61,54,51,85,66,51,29.84,29.58,22,3,25,0.01
2013-10-12,62,51,46,57,44,40,86,77,63,30.16,29.64,16,3,19,0.00
2013-10-13,62,47,35,41,37,33,95,72,37,30.43,30.15,8,0,0,0.00
2013-10-14,55,48,39,46,40,37,92,75,54,30.40,29.97,5,0,0,0.45
2013-10-15,53,49,45,52,48,44,96,94,91,29.97,29.66,7,1,0,1.13
2013-10-16,54,45,38,44,40,35,95,83,51,29.94,29.81,10,2,0,0.01
2013-10-17,56,46,39,45,40,35,94,80,55,29.87,29.76,13,2,15,0.43
2013-10-18,51,43,37,40,35,29,95,74,43,29.97,29.83,14,2,14,0.16
2013-10-19,44,39,33,40,35,30,93,86,77,29.83,29.68,13,2,15,0.06
2013-10-20,43,36,31,39,34,29,94,91,85,29.88,29.62,13,2,15,0.14
2013-10-21,38,34,30,32,24,21,84,68,57,29.97,29.88,16,4,22,0.00
2013-10-22,40,33,25,32,28,23,92,84,68,30.04,29.96,6,0,0,0.00
2013-10-23,37,34,32,31,26,20,92,73,58,30.12,30.01,13,2,12,0.01
2013-10-24,41,36,32,32,27,22,83,70,57,30.32,30.12,13,2,13,0.00
2013-10-25,57,44,30,43,34,27,91,71,55,30.32,29.76,13,2,13,0.00
2013-10-26,51,42,36,42,30,28,76,64,54,30.10,29.77,17,4,17,0.00
2013-10-27,57,42,32,36,31,27,83,65,42,30.14,29.81,9,1,0,0.00
2013-10-28,49,37,29,30,25,20,83,64,35,30.44,30.14,3,0,0,0.00
2013-10-29,40,36,29,35,29,23,92,76,67,30.43,30.10,2,0,0,0.10
2013-10-30,49,44,38,48,43,35,97,95,92,30.10,29.65,4,0,0,0.09
2013-10-31,49,42,39,48,41,37,97,94,89,29.65,29.38,10,2,0,0.03
2013-11-1,50,42,38,38,36,32,93,81,60,29.85,29.40,14,2,14,0.00
2013-11-2,49,38,31,36,31,28,90,76,50,30.10,29.84,9,1,0,0.00
2013-11-3,56,45,32,36,33,29,91,64,44,30.12,29.88,23,3,23,0.00
2013-11-4,48,44,34,44,37,32,94,78,59,30.14,29.81,17,3,17,0.14
2013-11-5,45,35,28,34,30,26,96,83,51,30.25,30.03,5,0,0,0.03
2013-11-6,38,33,29,31,27,24,95,81,63,30.17,30.03,12,2,0,0.18
2013-11-7,36,29,24,30,26,22,94,88,78,30.25,30.17,8,1,0,0.01
2013-11-8,45,35,22,38,28,21,95,78,58,30.21,29.59,17,2,17,0.01
2013-11-9,43,40,36,38,33,27,86,75,62,30.19,29.62,20,6,20,0.00
2013-11-10,42,37,32,31,29,26,80,72,60,30.33,30.10,12,2,0,0.00
2013-11-11,37,24,14,31,13,8,81,64,46,30.75,30.12,15,2,15,0.00
2013-11-12,29,19,11,15,9,6,82,66,42,30.82,30.48,8,2,0,0.00
2013-11-13,26,24,22,16,14,14,72,68,65,30.48,30.22,13,2,13,0.00
2013-11-21,37,29,24,36,25,15,94,84,69,30.53,30.08,14,2,14,0.00
2013-11-22,34,22,12,16,10,3,83,63,33,30.67,30.47,18,4,18,0.00
2013-11-23,18,11,5,4,0,-100,83,66,43,30.89,30.67,15,3,15,0.00
2013-11-24,31,20,7,17,-16,-100,82,65,49,30.72,30.01,16,4,16,0.00
2013-11-25,37,33,27,28,24,17,82,69,60,30.09,29.92,20,5,20,0.00
2013-11-26,29,19,13,20,8,2,74,60,49,30.42,30.09,21,5,21,0.00
2013-11-27,24,16,7,11,8,4,87,68,54,30.43,30.11,13,2,13,0.00
2013-11-28,26,20,10,15,12,7,88,69,57,30.55,30.10,13,2,13,0.00
2013-11-29,31,22,8,22,15,5,89,74,57,30.55,30.16,16,3,16,0.00
2013-11-30,38,31,23,27,24,19,90,75,64,30.18,30.04,8,1,0,0.00
2013-12-1,34,26,17,26,21,15,93,83,68,30.21,29.93,5,0,0,0.00
2013-12-2,38,32,26,33,29,22,94,87,76,29.94,29.59,14,1,14,0.17
2013-12-3,34,33,31,33,32,29,95,94,93,29.80,29.59,3,0,0,0.08
2013-12-4,31,27,13,29,25,9,95,92,83,29.79,29.48,2,0,0,0.00
2013-12-5,13,5,-2,9,0,-6,83,78,70,30.40,29.70,0,0,0,0.00
2013-12-6,-2,-4,-6,-5,-7,-9,85,83,82,30.48,30.40,0,0,0,0.00
2013-12-9,1,-2,-5,-4,-7,-9,79,75,67,30.17,29.93,0,0,0,0.00
2013-12-10,8,4,-1,4,-1,-5,88,79,67,30.35,29.83,0,0,0,0.00
2013-12-11,2,-4,-10,-4,-10,-13,78,73,62,30.64,30.35,0,0,0,0.00
2013-12-12,19,10,0,11,5,-5,86,77,63,30.39,30.19,0,0,0,0.00
2013-12-13,18,13,10,11,8,6,86,79,70,30.34,30.18,0,0,0,0.00
2013-12-14,14,8,-1,8,4,-6,86,81,75,30.34,30.13,11,1,0,0.00
2013-12-15,4,-1,-3,-6,-8,-9,79,69,55,30.23,30.15,10,2,0,0.00
2013-12-16,22,8,0,19,4,-8,92,80,64,30.21,29.94,9,1,0,0.00
2013-12-17,22,22,22,19,19,19,89,88,88,29.94,29.93,2,1,0,0.00
2013-12-19,16,16,15,12,11,9,88,80,74,30.09,30.05,5,0,0,0.00
2013-12-20,20,16,11,13,11,8,88,84,73,30.07,29.89,3,0,0,0.00
2013-12-21,23,18,13,16,13,10,86,82,73,30.04,29.89,4,0,0,0.00
2013-12-22,19,14,6,14,10,2,89,85,78,30.27,29.98,11,2,0,0.00
2013-12-23,6,-1,-4,2,-5,-9,86,79,74,30.58,30.27,11,4,13,0.00
2013-12-24,9,0,-14,5,-5,-16,88,78,58,30.56,30.20,15,2,15,0.00
2013-12-25,24,15,8,20,11,4,89,84,72,30.20,30.09,14,2,14,0.00
2013-12-26,27,19,12,22,15,9,90,85,78,30.20,30.10,5,0,0,0.00
2013-12-27,41,28,10,31,24,7,93,85,68,30.19,29.90,10,2,0,0.12
2013-12-28,46,30,18,33,26,14,95,85,59,30.02,29.64,15,1,15,0.05
2013-12-29,18,-2,-13,14,-9,-17,84,68,49,30.37,30.02,13,3,14,0.00
2013-12-30,2,-10,-13,-3,-14,-17,82,79,75,30.38,30.27,6,0,0,0.00